Location: Rounton
(54.4000°N, 1.3500°W)
Time: 00:08:07
(UTC+01:00)

Vanguard 1 - Pass Details

Date: 02 March 2024
Orbit: 653 x 3825 km, 34.2° (Epoch: 22 April)

Event Time Altitude Azimuth Distance (km) Brightness Sun altitude
Rises 21:21:52 0° 253° (WSW) 5,540 14.4 -30.8°
Reaches altitude 10° 21:25:22 10° 245° (WSW) 4,926 13.9 -31.2°
Maximum altitude 21:38:35 36° 186° (S) 4,307 12.9 -32.7°
Enters shadow 21:41:41 35° 171° (S) 4,567 13.0 -33.0°
Drops below altitude 10° 21:57:22 10° 131° (SE) 6,905 - -34.7°
Sets 22:03:35 0° 124° (SE) 7,954 - -35.3°
